Regional Weather Roundup
Issued by NWS

Home | Current Version | Previous Version | Graphics & Text | Print | Product List | Glossary On
Versions: 1 2 3 4 5 6 7 8 9 10 11 12 13 14 15 16 17 18 19 20 21 22 23 24 25 26 27 28 29 30 31 32 33 34 35 36 37 38 39 40 41 42 43 44 45 46 47 48 49 50
000
ASUS43 KIND 031009
RWRIN

WEATHER ROUNDUP FOR INDIANA
NATIONAL WEATHER SERVICE INDIANAPOLIS IN
600 AM EDT THU SEP 03 2015

NOTE: "FAIR" INDICATES FEW OR NO CLOUDS BELOW 12,000 FEET WITH NO
SIGNIFICANT WEATHER AND/OR OBSTRUCTIONS TO VISIBILITY.

* - STATION DOES NOT REPORT WEATHER SUCH AS PRECIPITATION OR FOG.

+ - STATION NOT QUALITY CONTROLLED BY THE NATIONAL WEATHER SERVICE.
    USE DATA WITH CAUTION...ESPECIALLY DEWPOINT AND RELATIVE
    HUMIDITY OBSERVATIONS.

INZ001>003-010>013-019-020-031100-
NORTHWEST INDIANA

CITY           SKY/WX    TMP DP  RH WIND       PRES   REMARKS
GARY /AIRPORT/   N/A     72  66  83 S5        29.97S
KNOX *+        CLEAR     68  68 100 S6        29.98S
LA PORTE +     PTCLDY   N/A N/A N/A CALM      29.99S
MICHIGAN CITY+ MOCLDY    72  64  78 S3        29.99R
MONTICELLO +   PTCLDY    71  70  96 CALM      29.99S
RENSSELAER +   PTCLDY    70  70 100 CALM      29.99F
VALPARAISO     PTCLDY    71  67  87 SW3       29.99S

$$

LMZ046-743>745-031100-
SOUTHERN LAKE MICHIGAN

STATION/POSITION TIME  TEMP    WIND        PRES    WAVE
                       AIR SEA DIR/SP/G            HT
                 (UTC) (F)     (DEG/KT/KT) (MB)    (FT)
BURNS HARBOR     0900   76     220/  7/ 10 1015.2R
MICHIGAN CITY    0900   75     190/  9/ 10   N/A
5NW MICH CITY    1000   74 73  230/  6/  6   N/A     1

$$

INZ004-005-014>016-021>024-031100-
NORTH CENTRAL INDIANA

CITY           SKY/WX    TMP DP  RH WIND       PRES   REMARKS
GOSHEN         PTCLDY    70  67  90 CALM      29.98S
LOGANSPORT +   PTCLDY    68  64  88 SW5       30.01S
PERU/GRISSOM   MOCLDY    69  66  90 S5        30.00S
ROCHESTER +    PTCLDY    72  70  94 CALM      30.00S
SOUTH BEND     PTCLDY    71  68  90 SW3       29.99S
WARSAW +       MOCLDY    72  68  88 SW3       30.00S

$$

INZ006>009-017-018-025>027-031100-
NORTHEAST INDIANA

CITY           SKY/WX    TMP DP  RH WIND       PRES   REMARKS
ANGOLA *+      PTCLDY    70  61  73 CALM      29.99S
AUBURN +       PTCLDY    70  66  88 CALM      30.00S
FORT WAYNE     PTCLDY    70  67  90 CALM      30.00S
HUNTINGTON +   CLEAR     69  65  85 CALM      30.00S

$$

INZ028-029-035-036-043>045-051>053-031100-
WEST CENTRAL INDIANA

CITY           SKY/WX    TMP DP  RH WIND       PRES   REMARKS
CRAWFORDSVL +  PTCLDY    65  65 100 CALM      30.02S FOG
GREENCASTLE +    N/A     64  61  88 CALM      30.03S FOG
LAFAYETTE      PTCLDY    69  67  93 CALM      29.99F FOG
TERRE HAUTE    CLEAR     64  63  96 CALM      30.02R FOG

$$

INZ030>032-037>040-046>048-054>057-064-065-031100-
CENTRAL INDIANA

CITY           SKY/WX    TMP DP  RH WIND       PRES   REMARKS
FRANKFORT +    PTCLDY   N/A N/A N/A CALM      30.03S
GREENWOOD *+   PTCLDY    64  63  94 CALM      30.03S
INDIANAPOLIS   CLEAR     70  66  87 CALM      30.01S
-EAGLE CREEK   CLEAR     70  67  90 CALM      30.01S
KOKOMO *+      PTCLDY    68  63  83 SW5       30.01S
MARION +       CLEAR     65  60  83 CALM      30.02S
MT COMFORT *+  CLEAR     64 N/A N/A CALM      30.03S
SHELBYVILLE    PTCLDY    65  62  90 CALM      30.02S FOG
ZIONSVILLE +     N/A     64  61  90 CALM      30.03S FOG

$$

INZ033-034-041-042-049-050-058-059-031100-
EAST CENTRAL INDIANA

CITY           SKY/WX    TMP DP  RH WIND       PRES   REMARKS
MUNCIE         CLEAR     68  67  96 SW5       30.02S

$$

INZ060-061-067>069-081>083-085>088-031100-
SOUTHWEST INDIANA

CITY           SKY/WX    TMP DP  RH WIND       PRES   REMARKS
EVANSVILLE     CLEAR     70  68  93 CALM      30.02R FOG
HUNTINGBURG *+ CLEAR     64  63  94 SE3       30.02S
WASHINGTON +   CLEAR     65  61  87 CALM      30.01R FOG

$$

INZ062-063-066-070>080-084-089>092-031100-
SOUTH CENTRAL AND SOUTHEAST INDIANA

CITY           SKY/WX    TMP DP  RH WIND       PRES   REMARKS
BLOOMINGTON    CLEAR     64  62  93 CALM      30.03S FOG
NORTH VERNON + CLEAR     68  68 100 CALM      30.03S FOG
SEYMOUR +      FOG       66  66 100 CALM      30.02S VSB 1/2

$$



USA.gov is the U.S. government's official web portal to all federal, state and local government web resources and services.